F/V Oceanis — FHLH — position and weather

sailwx.info

Track history (hours):
 
Tides and Currents Weather Stations Pressure Air Temp Water Temp Dewpoint Dewpoint Depression Visibility Wind Speed Wind Dir Waves Ship Positions

F/V Oceanis

Last reported at 2014-Oct-24 19:25 UTC. Time now 2014-Oct-25 03:40 UTC.
Position N 46°10' W 002°07'.

Length 16 m.

Type: Other ship. MMSI: 228385000.

Date/timePositionNaut miles runAvg speedWind from/ knotsBaromVisibWave heightAir tempDewpointWater temp
2014-Oct-24 19:25N 46°10' W 002°07'10 0.9
2014-Oct-24 07:32N 45°60' W 002°12'  
2014-Oct-20 03:33N 45°25' W 001°33'0 0.3
2014-Oct-20 02:33N 45°25' W 001°33'1 0.5
2014-Oct-19 23:33N 45°26' W 001°33'0 0.2
2014-Oct-19 22:28N 45°26' W 001°33'5 0.2
2014-Oct-19 00:32N 45°31' W 001°37'0 0.0
2014-Oct-18 23:33N 45°31' W 001°37'0 0.0
2014-Oct-18 22:33N 45°31' W 001°37'0 0.0
2014-Oct-18 21:33N 45°31' W 001°37'0 0.0
2014-Oct-18 20:20N 45°31' W 001°37'  
2014-Oct-16 08:07N 45°30' W 001°37'31 2.9
2014-Oct-15 21:27N 44°60' W 001°26'12 6.5
2014-Oct-15 19:33N 44°48' W 001°22'7 6.6
2014-Oct-15 18:33N 44°41' W 001°20'6 6.5
2014-Oct-15 17:33N 44°35' W 001°19'5 4.8
2014-Oct-15 16:34N 44°38' W 001°14'4 4.0
2014-Oct-15 15:33N 44°39' W 001°09'0 0.0
2014-Oct-15 14:34N 44°39' W 001°09'0 0.0
2014-Oct-15 13:32N 44°39' W 001°09'0 0.0
2014-Oct-15 12:33N 44°39' W 001°09'0 0.0
2014-Oct-15 11:33N 44°39' W 001°09'0 0.0
2014-Oct-15 10:33N 44°39' W 001°09'0 0.0
2014-Oct-15 08:05N 44°39' W 001°09'0 0.0
2014-Oct-15 07:34N 44°39' W 001°09'0 0.0
2014-Oct-15 06:34N 44°39' W 001°09'0 0.0
2014-Oct-15 05:34N 44°39' W 001°09'0 0.0
2014-Oct-15 04:33N 44°39' W 001°09'0 0.0
2014-Oct-15 03:34N 44°39' W 001°09'0 0.0
2014-Oct-15 02:34N 44°39' W 001°09'0 0.0
2014-Oct-15 01:34N 44°39' W 001°09'0 0.0
2014-Oct-15 00:34N 44°39' W 001°09'0 0.0
2014-Oct-14 23:34N 44°39' W 001°09'0 0.0
2014-Oct-14 22:33N 44°39' W 001°09'0 0.0
2014-Oct-14 21:33N 44°39' W 001°09'0 0.0
2014-Oct-14 20:33N 44°39' W 001°09'0 0.0
2014-Oct-14 19:33N 44°39' W 001°09'  
Track history (hours):
 
Tides and Currents Weather Stations Pressure Air Temp Water Temp Dewpoint Dewpoint Depression Visibility Wind Speed Wind Dir Waves Ship Positions

F/V Oceanis

Last reported at 2014-Oct-24 19:25 UTC. Time now 2014-Oct-25 03:40 UTC.
Position N 46°10' W 002°07'.

Length 16 m.

Type: Other ship. MMSI: 228385000.

Date/timePositionNaut miles runAvg speedWind from/ knotsBaromVisibWave heightAir tempDewpointWater temp
2014-Oct-24 19:25N 46°10' W 002°07'10 0.9
2014-Oct-24 07:32N 45°60' W 002°12'  
2014-Oct-20 03:33N 45°25' W 001°33'0 0.3
2014-Oct-20 02:33N 45°25' W 001°33'1 0.5
2014-Oct-19 23:33N 45°26' W 001°33'0 0.2
2014-Oct-19 22:28N 45°26' W 001°33'5 0.2
2014-Oct-19 00:32N 45°31' W 001°37'0 0.0
2014-Oct-18 23:33N 45°31' W 001°37'0 0.0
2014-Oct-18 22:33N 45°31' W 001°37'0 0.0
2014-Oct-18 21:33N 45°31' W 001°37'0 0.0
2014-Oct-18 20:20N 45°31' W 001°37'  
2014-Oct-16 08:07N 45°30' W 001°37'31 2.9
2014-Oct-15 21:27N 44°60' W 001°26'12 6.5
2014-Oct-15 19:33N 44°48' W 001°22'7 6.6
2014-Oct-15 18:33N 44°41' W 001°20'6 6.5
2014-Oct-15 17:33N 44°35' W 001°19'5 4.8
2014-Oct-15 16:34N 44°38' W 001°14'4 4.0
2014-Oct-15 15:33N 44°39' W 001°09'0 0.0
2014-Oct-15 14:34N 44°39' W 001°09'0 0.0
2014-Oct-15 13:32N 44°39' W 001°09'0 0.0
2014-Oct-15 12:33N 44°39' W 001°09'0 0.0
2014-Oct-15 11:33N 44°39' W 001°09'0 0.0
2014-Oct-15 10:33N 44°39' W 001°09'0 0.0
2014-Oct-15 08:05N 44°39' W 001°09'0 0.0
2014-Oct-15 07:34N 44°39' W 001°09'0 0.0
2014-Oct-15 06:34N 44°39' W 001°09'0 0.0
2014-Oct-15 05:34N 44°39' W 001°09'0 0.0
2014-Oct-15 04:33N 44°39' W 001°09'0 0.0
2014-Oct-15 03:34N 44°39' W 001°09'0 0.0
2014-Oct-15 02:34N 44°39' W 001°09'0 0.0
2014-Oct-15 01:34N 44°39' W 001°09'0 0.0
2014-Oct-15 00:34N 44°39' W 001°09'0 0.0
2014-Oct-14 23:34N 44°39' W 001°09'0 0.0
2014-Oct-14 22:33N 44°39' W 001°09'0 0.0
2014-Oct-14 21:33N 44°39' W 001°09'0 0.0
2014-Oct-14 20:33N 44°39' W 001°09'0 0.0
2014-Oct-14 19:33N 44°39' W 001°09'  

Dump ship's entire track history